Flag for Poland Weather past 2 weeks in Gorzów Wielkopolski, Poland

Now
80 °F

Overcast.


Feels Like: 81 °F
Forecast: 56 / 68 °F
Wind: 3 mph from North

Location: Gorzow Wlkp

Current Time: Sep 1, 2015 at 9:13:21 PM

Latest Report: Sep 1, 2015 at 8:00 PM


Visibility: 13 mi

Pressure: 29.67 "Hg

Humidity: 56%

Dew point: 62 °F

Location of Gorzów WielkopolskiLocation

Historic Weather in Gorzów Wielkopolski — Graph

°F

Gorzów Wielkopolski temperature yesterday

Maximum temperature yesterday: 94 °F (at 3:00 PM)
Minimum temperature yesterday: 65 °F (at 6:00 AM)
Average temperature yesterday: 79 °F

Past Weeks' High & Low Weather Summary

 TemperatureHumidityPressure
High94 °F (Aug 31, 3:00 PM)98% (Aug 29, 6:00 AM)30.34 "Hg (Aug 29, 6:00 AM)
Low50 °F (Aug 29, 7:00 AM)23% (Aug 19, 3:00 PM)29.67 "Hg (Sep 1, 7:00 PM)
Average69 °F54%30.03 "Hg
* Reported Aug 17 7:00 PM — Sep 1 7:00 PM, Gorzów Wielkopolski, Weather by CustomWeather, © 2015

Note: Actual official high and low records may vary slightly from our data, if they occured in-between our weather recording intervals... More about our weather records

Advertising

Gorzów Wielkopolski weather history for previous 24 hours

 ConditionsComfort  
Time TempWeatherWind HumidityBarometerVisibility
7:00 PM
Tue, Sep 1
82 °FScattered clouds.3 mph53%29.67 "Hg19 mi
6:00 PM87 °FPassing clouds.2 mph42%29.67 "Hg25 mi
5:00 PM88 °FPassing clouds.2 mph39%29.69 "Hg25 mi
4:00 PM87 °FPassing clouds.3 mph41%29.70 "Hg25 mi
3:00 PM86 °FPassing clouds.3 mph43%29.71 "Hg25 mi
2:00 PM87 °FPassing clouds.3 mph41%29.71 "Hg25 mi
1:00 PM87 °FPassing clouds.2 mph44%29.72 "Hg25 mi
12:00 PM83 °FPassing clouds.2 mph47%29.72 "Hg19 mi
11:00 AM81 °FSunny.2 mph54%29.73 "Hg19 mi
10:00 AM79 °FSunny.3 mph60%29.73 "Hg19 mi
9:00 AM76 °FSunny.2 mph67%29.71 "Hg12 mi
8:00 AM71 °FPassing clouds.1 mph74%29.71 "Hg12 mi
7:00 AM70 °FScattered clouds.2 mph73%29.71 "Hg16 mi
6:00 AM71 °FOvercast.2 mph70%29.71 "Hg12 mi
4:00 AM75 °FOvercast.2 mph55%29.73 "Hg16 mi
3:00 AM71 °FOvercast.2 mph67%29.72 "Hg16 mi
2:00 AM76 °FPassing clouds.1 mph52%29.72 "Hg19 mi
1:00 AM76 °FPassing clouds.1 mph52%29.75 "Hg16 mi
12:00 AM79 °FPassing clouds.1 mph44%29.75 "Hg19 mi
10:00 PM
Mon, Aug 31
81 °FClear.1 mph40%29.78 "Hg25 mi
9:00 PM82 °FPassing clouds.1 mph41%29.79 "Hg25 mi
Weather by CustomWeather, © 2015

See weather overviewHow to use our weather pages